Theta_e
348 358 364 363 362 362 362 363 363 363 363 363 363 363 362 361 361 362 361 361 361 359 357 355 353 351 350 351 353 354 355 354 353 353 353 354 354 354 355 351 350 348 349
352 359 363 362 362 362 362 362 362 362 362 362 362 362 361 360 361 361 361 361 360 358 355 353 350 349 348 350 352 353 354 353 355 353 352 352 353 355 352 351 350 349 349
352 359 361 362 362 362 361 361 361 360 361 361 361 360 360 360 361 361 361 360 358 356 353 350 347 344 344 345 347 349 352 353 354 353 350 346 348 352 352 350 350 350 350
355 358 358 362 361 361 360 360 360 360 360 360 360 360 360 361 361 360 360 359 356 354 350 347 344 341 341 339 339 341 343 344 345 345 339 340 344 348 350 351 350 349 348
354 357 358 362 361 361 360 359 359 359 359 359 359 359 359 360 359 359 359 358 354 351 348 344 342 343 342 341 342 344 344 344 342 334 333 334 335 340 350 350 349 350 348
353 355 361 362 360 360 360 359 358 358 359 359 359 359 359 359 358 358 358 357 354 350 347 343 344 344 343 342 344 344 345 344 338 332 335 336 339 340 350 350 349 349 350
352 354 359 361 360 360 359 359 358 358 358 359 359 359 358 358 358 357 357 355 354 352 347 343 344 345 344 344 344 344 345 343 336 335 336 336 336 346 354 352 353 350 349
351 354 357 360 360 359 359 358 357 357 357 358 358 358 358 357 357 357 356 355 353 351 349 346 346 344 343 342 342 342 343 341 338 335 336 335 337 344 349 355 355 353 349
353 354 355 356 358 359 359 358 357 356 356 356 357 357 357 356 357 356 356 354 354 352 350 349 346 345 343 342 343 343 343 340 337 337 335 335 335 340 345 354 355 352 351
351 352 352 354 355 355 355 358 357 356 356 356 356 356 356 356 356 356 353 353 353 351 350 349 347 346 344 343 343 343 343 342 335 334 334 333 338 341 344 353 356 354 353
349 351 352 352 354 354 353 355 357 357 357 356 356 356 353 351 352 351 351 352 353 351 350 349 348 346 345 345 345 345 344 338 335 334 335 337 341 342 345 354 356 354 354
343 348 350 350 352 352 353 352 352 353 354 353 352 352 349 347 347 348 349 352 353 352 350 349 348 348 347 340 338 340 338 337 335 335 335 340 343 345 346 351 355 356 354
341 346 349 349 351 350 350 351 352 352 352 352 351 350 346 345 346 347 344 347 346 349 343 347 345 344 342 340 339 338 336 334 333 334 335 342 345 346 348 352 355 356 354
338 343 348 349 349 350 349 349 350 350 350 350 351 351 347 342 341 341 341 340 340 339 339 338 339 340 339 340 339 338 336 334 333 333 335 341 345 346 349 354 356 357 355
338 341 346 348 347 349 348 349 349 348 349 348 349 349 348 343 339 339 338 337 336 336 337 337 337 337 337 337 337 336 335 335 334 333 334 339 344 347 348 354 358 357 355
340 340 344 346 347 348 349 348 348 349 349 349 349 349 348 345 341 338 336 335 334 335 336 337 337 337 336 336 336 336 336 336 336 336 336 336 341 344 347 353 357 358 356
340 341 341 344 346 346 347 347 347 348 349 348 348 350 348 345 341 338 336 335 335 335 336 337 338 337 336 336 336 337 337 338 337 337 338 338 338 341 345 351 354 356 356
338 339 341 343 343 344 345 345 346 346 348 347 347 347 348 347 344 340 337 335 335 336 336 336 337 336 336 337 337 338 337 338 338 337 338 338 339 338 340 349 351 353 354
333 338 338 340 339 340 342 343 343 344 346 345 343 343 344 346 345 341 338 337 335 336 337 337 337 338 337 336 334 334 335 335 336 337 337 338 339 340 340 341 348 350 351
322 330 338 339 339 339 339 341 340 338 340 340 340 342 342 344 345 341 339 335 337 337 335 337 337 338 337 336 335 334 335 335 336 335 336 336 339 341 342 342 343 347 348
317 321 329 336 337 337 336 337 338 337 336 338 340 341 341 341 343 342 341 340 337 336 337 338 337 337 336 335 333 332 331 334 335 336 336 338 341 343 344 343 342 343 344
314 320 324 333 335 337 339 339 339 339 338 338 339 340 341 341 342 341 340 341 342 340 340 338 337 334 335 332 332 330 326 328 329 332 336 339 340 339 341 344 344 344 344
312 317 322 327 332 338 339 337 335 337 336 334 336 338 340 342 343 343 342 340 340 342 341 340 338 336 335 333 333 331 326 321 326 330 332 332 333 334 336 340 343 344 345
313 315 319 324 326 333 337 337 335 334 334 334 334 337 338 340 342 345 345 343 342 342 340 341 340 338 335 331 332 334 334 331 325 323 329 330 333 334 336 339 339 343 345
313 314 316 318 319 323 334 338 336 332 333 332 332 333 335 337 339 339 342 344 342 342 341 341 339 338 336 336 332 331 333 332 332 327 324 327 329 332 336 334 341 344 344
311 312 313 316 316 317 321 325 329 329 327 326 326 328 330 333 335 337 338 338 336 337 337 339 339 337 336 336 336 333 331 331 329 329 327 327 326 331 336 339 338 338 343
Wind_Speed
6 11 17 17 16 17 16 19 19 20 20 21 21 21 20 19 18 16 16 14 13 14 13 13 12 12 12 12 11 11 11 11 10 10 9 8 6 5 5 8 8 7 8
12 12 18 17 16 16 16 16 19 19 19 20 21 20 20 19 18 16 15 14 13 14 13 12 13 13 12 12 12 10 10 9 7 9 9 8 7 7 6 6 7 6 7
14 11 13 17 17 16 16 15 16 18 18 19 20 20 19 18 17 16 15 13 14 13 13 12 12 13 12 11 11 10 9 8 7 7 7 3 3 4 5 5 7 8 7
13 11 12 16 18 17 17 17 16 15 16 16 18 18 18 17 17 16 14 14 13 13 12 11 11 12 12 12 11 9 8 6 5 5 2 1 2 5 5 6 7 8 8
12 12 10 17 18 18 18 19 19 18 16 15 16 16 16 15 15 15 14 12 13 12 11 10 9 9 10 10 9 8 6 5 4 3 1 2 2 6 7 7 7 7 8
12 8 12 15 17 18 18 19 19 20 19 17 16 16 15 14 13 12 12 12 11 11 11 9 7 7 8 8 8 8 7 4 4 1 2 4 3 7 9 8 8 7 7
12 7 12 15 15 18 17 18 20 20 21 18 18 17 16 14 13 12 12 11 10 10 10 9 8 6 5 6 5 6 6 4 3 1 2 4 4 5 9 9 8 7 7
12 8 8 14 14 15 16 15 16 19 21 20 18 17 16 14 13 12 12 11 11 11 10 9 8 7 5 4 3 3 3 3 3 2 1 2 5 4 8 7 6 8 7
9 10 10 8 11 15 15 15 14 15 17 19 18 16 15 14 13 13 12 12 11 11 11 10 9 8 6 5 3 3 2 2 2 1 1 1 5 6 7 10 10 10 9
10 10 10 12 8 7 9 15 14 13 14 16 16 15 14 14 13 12 11 11 11 10 9 9 8 7 6 5 4 4 5 5 2 2 2 3 6 7 8 10 12 12 10
8 10 13 14 10 10 7 11 13 15 13 14 14 15 12 7 8 11 10 12 11 10 9 8 7 7 5 4 4 5 7 2 3 3 3 8 8 8 8 9 12 12 12
13 15 14 15 13 9 9 8 8 8 6 5 6 8 6 6 6 7 9 11 10 9 8 7 7 6 5 2 2 5 2 4 3 4 4 9 9 9 9 10 13 14 14
17 12 15 15 14 11 9 8 5 4 5 4 5 5 4 4 4 4 2 3 3 6 3 4 3 3 3 3 3 3 4 4 3 4 6 9 10 9 9 10 11 14 15
15 15 13 14 14 12 7 8 7 7 6 6 6 9 6 3 3 4 4 4 3 3 4 3 2 3 4 4 5 5 6 4 3 4 6 12 11 11 12 11 11 14 14
9 13 15 13 13 12 8 8 8 9 8 10 10 11 7 6 6 3 2 2 2 3 3 4 3 3 4 4 4 5 6 6 6 4 4 12 12 11 12 12 11 13 14
10 13 14 14 11 11 12 12 10 9 11 11 11 11 11 6 5 6 5 4 3 2 2 3 4 4 4 3 4 5 7 6 6 6 5 5 11 11 12 11 11 13 14
13 15 17 18 17 15 15 11 9 9 9 11 10 13 13 11 8 7 4 5 5 5 4 3 3 2 3 3 5 5 4 5 6 7 6 5 5 9 11 12 12 13 15
7 13 15 15 19 18 17 13 9 8 9 9 7 5 7 6 7 7 7 8 6 5 7 5 4 3 4 4 3 4 3 4 6 7 5 5 4 4 6 13 14 13 14
12 13 13 14 16 18 15 10 11 11 10 8 6 5 7 4 4 5 5 6 5 4 4 4 4 3 3 3 4 4 4 4 6 6 7 6 5 4 5 8 13 15 15
10 9 12 13 14 15 10 7 5 5 6 5 7 8 12 10 11 8 6 4 3 3 4 3 4 3 3 2 3 4 4 4 5 6 5 4 4 4 5 6 4 7 13
6 7 8 12 12 10 9 10 7 10 8 7 7 9 8 9 13 11 7 4 4 5 8 7 4 4 3 2 2 3 3 5 5 3 3 1 2 3 4 3 4 4 6
15 14 9 12 10 12 10 10 4 7 4 5 6 8 8 9 9 8 10 6 4 4 6 5 5 2 2 3 2 0 4 4 3 2 4 1 1 1 3 5 6 7 7
10 14 15 14 13 12 10 6 3 4 3 4 5 7 9 7 8 9 7 7 8 5 9 8 8 7 3 1 3 2 1 3 3 2 5 2 3 5 4 6 6 7 8
11 7 9 10 13 12 12 10 8 6 6 4 5 4 6 9 8 9 10 10 12 12 9 10 6 5 7 5 2 4 3 4 2 5 3 4 4 2 7 4 7 7 8
8 8 6 6 7 7 9 12 9 5 4 3 4 5 5 6 8 9 9 13 13 10 12 21 6 5 6 4 5 4 3 3 2 5 4 4 3 5 6 4 6 6 7
4 7 7 8 7 7 9 8 9 9 6 4 3 3 3 3 4 6 7 6 7 8 8 6 4 4 6 9 6 6 7 5 5 4 6 7 5 4 4 3 6 6 8
Wind_Direction
186 158 154 154 150 142 134 127 125 123 127 129 128 129 129 130 133 136 136 133 131 130 128 124 118 111 109 111 112 109 102 107 114 114 114 109 84 122 117 104 105 103 99
140 154 153 150 147 141 136 131 126 126 128 128 129 130 130 135 139 138 139 140 138 138 135 131 127 123 119 114 108 107 112 117 117 117 109 93 87 112 105 120 119 112 113
144 153 150 149 145 144 139 132 127 126 129 132 133 133 137 139 140 142 143 144 147 146 143 140 133 126 120 118 118 121 122 123 123 117 103 103 120 142 140 148 146 141 138
140 151 150 151 144 146 141 136 131 128 127 130 132 136 140 142 144 146 146 150 151 149 145 141 134 129 127 129 130 128 128 132 126 116 114 167 230 182 177 172 174 159 144
139 153 158 152 146 148 147 143 141 137 135 136 138 141 146 147 147 148 149 152 154 150 145 139 135 135 134 134 132 127 126 124 117 117 175 272 264 217 191 191 189 181 156
142 142 160 157 151 148 152 148 146 145 144 146 148 149 149 148 147 148 151 155 156 152 145 142 142 147 142 139 137 133 131 122 112 43 345 313 309 221 204 198 198 206 183
150 146 157 163 157 151 155 155 153 152 148 151 153 154 152 151 153 155 159 165 161 154 152 152 155 155 148 146 140 144 137 129 130 119 317 318 334 241 200 200 213 210 204
150 148 152 165 162 157 157 160 160 157 153 153 158 157 155 157 160 166 170 172 169 162 160 160 165 164 171 168 166 165 147 152 144 167 249 329 323 306 244 212 208 207 210
144 154 162 164 171 162 161 162 167 167 161 158 159 160 159 163 168 174 178 179 176 172 167 166 174 178 185 189 217 252 272 258 157 211 296 302 299 297 272 228 216 213 211
150 160 172 179 168 167 167 167 171 176 172 165 162 160 163 169 173 182 187 189 184 182 174 173 185 190 196 211 229 274 286 305 318 277 256 257 267 273 270 232 222 213 209
167 177 180 183 177 167 166 174 174 179 185 176 170 168 166 176 183 190 194 196 192 187 181 185 198 206 212 241 271 273 287 275 283 260 252 254 259 265 257 242 230 220 211
185 185 186 187 182 170 173 176 171 172 183 183 183 178 173 182 190 192 198 204 201 192 187 192 213 228 228 221 262 290 282 276 272 269 254 256 252 254 256 249 234 223 217
186 181 189 186 186 175 182 172 173 173 165 183 187 185 183 180 192 200 202 197 181 200 187 194 215 234 243 250 266 279 281 281 277 276 279 279 276 271 263 258 237 224 222
187 184 187 185 183 181 173 183 175 176 177 188 192 200 188 184 214 211 207 207 179 172 183 195 210 230 249 256 265 274 269 261 255 261 269 281 277 279 286 274 233 217 224
193 190 185 183 182 181 180 185 185 186 189 195 198 207 193 192 190 197 236 223 218 172 190 196 202 224 255 258 256 258 267 264 257 256 264 270 272 272 274 274 228 223 229
188 191 179 187 180 183 186 188 189 198 186 198 199 201 199 201 200 205 186 212 215 216 215 218 202 208 226 243 264 248 256 266 276 271 263 267 271 273 268 261 243 230 235
203 187 184 187 178 182 193 192 192 199 196 200 203 201 198 188 198 191 224 219 194 175 212 226 245 226 251 243 251 258 267 269 270 273 274 274 267 258 262 250 239 233 240
201 194 189 193 186 186 191 189 193 195 198 207 198 197 210 224 208 207 214 211 207 198 182 183 210 227 229 232 252 250 249 261 263 261 259 262 258 269 260 249 239 236 239
208 203 192 193 190 191 195 189 196 196 201 193 170 162 160 191 222 263 266 266 188 187 209 173 195 201 221 238 252 255 253 253 261 267 259 257 264 258 259 257 246 238 236
215 207 205 196 194 187 184 182 180 179 201 183 180 194 175 188 190 191 227 261 273 258 191 178 198 184 248 243 279 269 257 251 263 269 269 256 258 273 279 270 265 248 242
217 192 200 198 188 172 169 180 187 202 182 191 199 201 190 198 209 192 205 188 197 238 249 191 169 182 214 197 278 298 259 238 256 274 260 212 311 342 284 286 269 257 260
210 204 191 206 189 189 186 191 181 178 176 176 184 201 203 194 198 197 173 173 195 240 275 236 134 193 131 191 201 48 329 330 348 316 277 219 61 259 335 301 284 270 244
245 202 196 196 188 197 177 146 95 102 90 120 189 207 216 197 192 194 198 173 191 192 239 234 168 161 154 209 231 165 327 269 318 11 269 253 61 34 318 289 275 268 261
232 264 233 190 179 184 168 173 176 178 162 181 168 171 189 198 200 200 199 202 219 198 219 242 182 155 135 198 149 231 269 171 191 325 322 340 349 321 269 264 282 274 255
190 202 219 179 161 174 173 180 178 157 140 146 144 166 181 197 205 199 198 199 207 199 196 208 188 158 208 148 175 135 198 248 260 216 248 246 262 240 242 267 277 275 258
210 181 182 186 184 171 170 170 168 165 154 149 155 176 188 203 209 208 203 200 207 215 223 227 238 253 223 217 185 184 195 189 191 195 227 235 222 221 199 243 269 264 272